Location: Kuffner-Sternwarte
(48.2130°N, 16.2960°E)
Time: 08:13:48
(UTC+02:00)

COROT - Pass Details

Date: 14 January 2018
Orbit: 602 x 887 km, 90.0° (Epoch: 16 July)

Event Time Altitude Azimuth Distance (km) Brightness Sun altitude
Rises 03:57:26 0° 18° (NNE) 2,871 9.3 -36.6°
Reaches altitude 10° 04:00:36 10° 44° (NE) 1,956 8.6 -36.1°
Maximum altitude 04:02:55 14° 77° (ENE) 1,691 8.5 -35.7°
Drops below altitude 10° 04:05:15 10° 111° (ESE) 1,965 8.8 -35.3°
Sets 04:08:26 0° 136° (SE) 2,893 9.4 -34.8°
